Regional Weather Roundup
Issued by NWS State College, PA

Home | Current Version | Previous Version | Text Only | Print | Product List | Glossary Off
Versions: 1 2 3 4 5 6 7 8 9 10 11 12 13 14 15 16 17 18 19 20 21 22 23 24 25 26 27 28 29 30 31 32 33 34 35 36 37 38 39 40 41 42 43 44 45 46 47 48 49 50

000
ASUS41 KCTP 262310
RWRCTP

REGIONAL WEATHER ROUNDUP
NATIONAL WEATHER SERVICE STATE COLLEGE PA
700 PM EDT SUN MAR 26 2017

Note: "fair" indicates few or no clouds below 12,000 feet with no
significant weather and/or obstructions to visibility.

* = STATION THAT DOES NOT REPORT PRECIPITATION /E.G. RAIN...SNOW...ETC/
    THUNDER OR FOG.

PAZ002>004-007>009-013>016-020>023-029>032-270000-
WESTERN PENNSYLVANIA

CITY           SKY/WX    TMP DP  RH WIND       PRES   REMARKS
ERIE           CLOUDY    54  48  80 E5        29.94F
MEADVILLE      MOCLDY    58  46  64 SE6       29.96S
FRANKLIN*      PTCLDY    54  45  71 SE14G23   30.01R
NEW CASTLE     LGT RAIN  58  53  84 S5        29.99R
BEAVER COUNTY  NOT AVBL
BUTLER*        CLOUDY    57  46  67 SE12      30.03R
PITTSBURGH INT RAIN      57  54  89 SE9       30.00R FOG
PITTSBURGH     LGT RAIN  57  47  69 SE10G16   30.02R
INDIANA*       MOCLDY    50  45  81 SE9G16    30.10S
LATROBE        MOCLDY    54  45  71 SE6       30.05S
WASHINGTON CO* CLOUDY    55  52  88 S5        30.05R
$$

PAZ004>006-010>012-017>019-024>028-033>037-041-042-045-046-049>053-270000-
CENTRAL PENNSYLVANIA

CITY           SKY/WX    TMP DP  RH WIND       PRES   REMARKS
BRADFORD       CLOUDY    42  41  96 S15G22    30.07S
DUBOIS         CLOUDY    44  40  85 SE17G24   30.06F FOG
CLEARFIELD       N/A    N/A N/A N/A MISG      30.14S
JOHNSTOWN      CLOUDY    43  43 100 SE9       30.10R FOG
ALTOONA        CLOUDY    44  43  96 SE7       30.16S FOG
STATE COLLEGE  CLOUDY    41  39  93 SE6       30.19R
WILLIAMSPORT   CLOUDY    43  37  79 E13G28    30.22F
SELINSGROVE    CLOUDY    41  39  93 SE7       30.26S FOG
FT INDIANTOWN  CLOUDY    40  40 100 E9        30.27F FOG
CAPITAL CITY   CLOUDY    44  41  89 E12       30.26F FOG
HARRISBURG     CLOUDY    43  42  97 E12       30.26F FOG
YORK           CLOUDY    43  43 100 E9        30.25S FOG
$$

PAZ038>040-043-044-047-048-054-055-060>062-067>071-270000-
EASTERN PENNSYLVANIA

CITY           SKY/WX    TMP DP  RH WIND       PRES   REMARKS
SCRANTON       CLOUDY    39  35  86 E7        30.26S
MOUNT POCONO   FOG       32  32 100 SE13      30.26S VSB<1/4
ALLENTOWN      CLOUDY    41  35  79 E14       30.32F
QUAKERTOWN*    CLOUDY    39  37  93 E9        30.32F
READING        CLOUDY    42  40  92 E9        30.28F FOG
LANCASTER      CLOUDY    43  43 100 E10       30.29R FOG
COATESVILLE    CLOUDY    41  41 100 E14G25    30.29S FOG
POTTSTOWN      CLOUDY    40  38  93 E8G21     30.32F FOG
BLUE BELL      CLOUDY    39  37  93 E13G20    30.31F
DOYLESTOWN     CLOUDY    39  38  96 MISG      30.31F
WILLOW GROVE   NOT AVBL
NORTH PHILA    CLOUDY    42  40  92 E15       30.34F FOG
PHILADELPHIA   CLOUDY    43  40  89 E12       30.33S FOG
$$



USA.gov is the U.S. government's official web portal to all federal, state and local government web resources and services.